weather.gov     
National Weather Service

Terminal Aerodrome Forecast
NWS Homepage
This page is being discontinued on March 12, 2014.
The same data is available at this site. Please update your bookmarks.
Thank you, and we apologize for the inconvenience.
Please send an email to SR-SRH.Webmaster@noaa.gov with any concerns.


Current Version
Previous Version:    01  02  03  04  05  06  07  08  09  10  11  12  13  14  15  16  17  18  19  20  21  22  23  24  25  26  27  28  29  30  
   31  32  33  
[Printable]
304
FTUS43 KTOP 010700 AAA
TAFTOP
TAF AMD
KTOP 010729Z 0107/0206 17012G22KT P6SM VCTS BKN080CB
     FM010900 18009G17KT 3SM TSRA BR SCT010 OVC035CB
     FM011200 18008KT 6SM SHRA VCTS SCT015 OVC030CB
     FM011700 18009KT P6SM SCT030 BKN050
     FM012200 17010KT P6SM VCTS SCT025 BKN040CB=


U.S. Dept. of Commerce
NOAA National Weather Service
1325 East West Highway
Silver Spring, MD 20910
E-mail: w-nws.webmaster@noaa.gov
Page last modified: May 16, 2007
NATIONAL WEATHER SERVICE: for Safety, for Work, for Fun - FOR LIFE